Regional Weather Roundup
Issued by NWS

Home | Current Version | Previous Version | Graphics & Text | Print | Product List | Glossary On
Versions: 1 2 3 4 5 6 7 8 9 10 11 12 13 14 15 16 17 18 19 20 21 22 23 24 25 26 27 28 29 30 31 32 33 34 35 36 37 38 39 40 41 42 43 44 45 46 47 48 49 50
000
ASUS45 KPSR 282210
RWRAZ

ARIZONA HOURLY REGIONAL WEATHER ROUNDUP
NATIONAL WEATHER SERVICE PHOENIX AZ
300 PM MST THU APR 28 2016

NOTE: FAIR INDICATES FEW OR NO CLOUDS BELOW 12,000 FEET WITH NO
SIGNIFICANT WEATHER AND/OR OBSTRUCTIONS TO VISIBILITY.

AZZ001>003-036-282300-
NORTHWEST ARIZONA

CITY           SKY/WX    TMP DP  RH WIND       PRES   REMARKS
BULLHEAD CITY  PTSUNNY   68  45  42 SW6       29.73S
KINGMAN        CLOUDY    56  43  61 SW8       29.76S
$$

AZZ004>008-015-016-018-282300-
NORTH CENTRAL ARIZONA

CITY           SKY/WX    TMP DP  RH WIND       PRES   REMARKS
GRAND CANYON   LGT RAIN  38  36  92 SW9       29.80R FOG     WCI  31
WILLIAMS       MIX PCPN  34  32  93 SW5       29.88R VSB 3/4 WCI  30
PRESCOTT       PTSUNNY   51  34  52 SW10      29.78S
FLAGSTAFF      MOSUNNY   43  24  47 SW26G38   29.79S
PAYSON         MOSUNNY   57  12  17 SW10G24   29.80F
PAGE           PTSUNNY   50  38  63 S10G21    29.74R
$$

AZZ009>014-017-282300-
NORTHEAST ARIZONA

CITY           SKY/WX    TMP DP  RH WIND       PRES   REMARKS
WINSLOW        CLOUDY    60  18  19 SW18G31   29.73S
SAINT JOHNS    SUNNY     66   4   8 SW38G47   29.70F
WINDOW ROCK    MOSUNNY   59   7  12 SW29G47   29.75S
SHOW LOW       PTSUNNY   54  19  26 SW33G40   29.78S
$$

AZZ023-282300-
GREATER PHOENIX AREA

CITY           SKY/WX    TMP DP  RH WIND       PRES   REMARKS
PHOENIX        MOSUNNY   74  18  12 SW14G29   29.70F
BUCKEYE        SUNNY     73  23  15 SW13      29.72F
GLENDALE       MOSUNNY   73  16  11 S8G22     29.72F
LUKE AFB       MOSUNNY   74  22  14 SW10      29.69F
DEER VALLEY    SUNNY     71  21  15 SW13G22   29.70F
SCOTTSDALE     SUNNY     71  14  11 SW8G17    29.73S
MESA-FALCON    MOSUNNY  N/A N/A N/A W14       29.69S
MESA-GATEWAY   MOSUNNY   73  25  16 W14G25    29.72F
CHANDLER       SUNNY     73  21  14 SW23      29.70F
$$

AZZ027-028-282300-
SOUTHWEST MARICOPA COUNTY AND PINAL COUNTY

CITY           SKY/WX    TMP DP  RH WIND       PRES   REMARKS
CASA GRANDE    SUNNY     75  25  15 W13G23    29.71F
GILA BEND      SUNNY     73  26  17 W10G23    29.72S
$$

AZZ503-504-507>509-282300-
SOUTHEAST ARIZONA

CITY           SKY/WX    TMP DP  RH WIND       PRES   REMARKS
TUCSON         MOSUNNY   79  22  12 SW25G33   29.70F
DAVIS-MONTHAN  PTSUNNY   78  23  12 W20G28    29.67F
RYAN FIELD     MOSUNNY   79  30  17 SW10G30   29.70F
NOGALES        MOSUNNY   76  26  15 SW25G39   29.74F
SIERRA VISTA   SUNNY     72  20  14 SW28      29.77S
DOUGLAS        SUNNY     78   6   6 SW35G46   29.73F
SAFFORD        SUNNY     80  14   8 SW12G23   29.62F
$$

AZZ020-021-025-026-031-282300-
SOUTHWEST ARIZONA

CITY           SKY/WX    TMP DP  RH WIND       PRES   REMARKS
YUMA           PTSUNNY   75  37  25 W12       29.74F
$$

CAZ031-033-041-043-047-048-061-282300-
SOUTHERN CALIFORNIA

CITY           SKY/WX    TMP DP  RH WIND       PRES   REMARKS
DOWNTOWN L.A.  SUNNY     67  40  37 VRB3      29.84S
L.A. AIRPORT   MOSUNNY   63  50  62 W15       29.87R
SAN DIEGO      MOSUNNY   64  47  53 SW10G16   29.92F
BURBANK        SUNNY     68  38  33 S10       29.83S
ONTARIO        PTSUNNY   66  44  45 SW10      29.84S
RIVERSIDE      CLOUDY    67  42  40 W6        29.84S
PALM SPRINGS   PTSUNNY   78  38  23 NW23G36   29.72F
EL CENTRO NAS  MOSUNNY   76  36  23 W32G38    29.76S
IMPERIAL       PTSUNNY   77  39  25 W21G31    29.73F
BLYTHE         MOSUNNY   75  38  26 VRB7G24   29.71F
NEEDLES        PTSUNNY   71  44  37 CALM      29.70S
$$

NVZ020-UTZ003-282300-
SOUTHERN NEVADA-UTAH

CITY           SKY/WX    TMP DP  RH WIND       PRES   REMARKS
LAS VEGAS      CLOUDY    67  46  47 NE13      29.66R
SALT LAKE CITY CLOUDY    57  35  43 SE12      29.74S
$$

NMZ009-TXZ055-282300-
NEW MEXICO-WEST TEXAS

CITY           SKY/WX    TMP DP  RH WIND       PRES   REMARKS
ALBUQUERQUE    MOSUNNY   72  11   9 S17G32    29.69F
EL PASO        MOSUNNY   83  12   7 SW12      29.71F
$$


........................KEY........................
SKY/WX - SKY CONDITION/WEATHER
TMP    - TEMPERATURE IN FAHRENHEIT
DP     - DEW POINT IN FAHRENHEIT
RH     - RELATIVE HUMIDITY IN PERCENT
WIND   - DIRECTION AND SPEED IN MILES PER HOUR (MPH)
VRB    - VARIABLE WIND DIRECTION
PRES   - MEAN SEA LEVEL PRESSURE IN INCHES OF MERCURY
         F - FALLING PRESSURE   R - RISING PRESSURE
         S - STEADY PRESSURE
VSB    - VISIBILITY IN MILES
HX     - HEAT INDEX IN FAHRENHEIT
WCI    - WIND CHILL INDEX IN FAHRENHEIT
TC     - TEMPERATURE IN CELSIUS WHICH IS ALSO KNOWN AS
         TEMPERATURE IN CENTIGRADE
AFB    - AIR FORCE BASE
         LUKE AFB IS LUKE AIR FORCE BASE
         DAVIS-MONTHAN IS DAVIS-MONTHAN AIR FORCE BASE
NAS    - NAVAL AIR STATION
         EL CENTRO NAS IS EL CENTRO NAVAL AIR STATION
N/A    - NOT AVAILABLE




USA.gov is the U.S. government's official web portal to all federal, state and local government web resources and services.